Flag for Switzerland Weather past 2 weeks in Affoltern am Albis, Zurich, Switzerland

Now
55 °F

Cool.


Feels Like: 55 °F
Forecast: 48 / 65 °F
Wind: 1 mph from East

Location: Zurich Town / Ville.

Current Time: Jul 29, 2015 at 5:48:54 AM

Latest Report: Jul 29, 2015 at 4:00 AM


Visibility: N/A

Pressure: 29.93 "Hg

Humidity: 82%

Dew point: 50 °F

Location of Affoltern am AlbisLocation

Historic Weather in Affoltern am Albis — Graph

°F

Affoltern am Albis temperature yesterday

Maximum temperature yesterday: 69 °F (at 6:00 PM)
Minimum temperature yesterday: 61 °F (at 6:00 AM)
Average temperature yesterday: 65 °F

Past Weeks' High & Low Weather Summary

 TemperatureHumidityPressure
High92 °F (Jul 21, 5:00 PM)98% (Jul 27, 2:00 AM)30.17 "Hg (Jul 27, 2:00 AM)
Low55 °F (Jul 26, 6:00 AM)24% (Jul 16, 4:00 PM)29.66 "Hg (Jul 24, 5:00 PM)
Average72 °F62%29.94 "Hg
* Reported Jul 14 4:00 AM — Jul 29 4:00 AM, Affoltern am Albis, Weather by CustomWeather, © 2015

Note: Actual official high and low records may vary slightly from our data, if they occured in-between our weather recording intervals... More about our weather records

Advertising

Affoltern am Albis weather history for previous 24 hours

 ConditionsComfort  
Time TempWeatherWind HumidityBarometerVisibility
4:00 AM
Wed, Jul 29
55 °FCool.1 mph82%29.93 "HgN/A
3:00 AM57 °FCool.3 mph70%29.94 "HgN/A
2:00 AM57 °FCool.3 mph77%29.93 "HgN/A
1:00 AM56 °FCool.1 mph80%29.94 "HgN/A
12:00 AM57 °FCool.6 mph81%29.95 "HgN/A
10:00 PM
Tue, Jul 28
63 °FMild.5 mph53%29.89 "HgN/A
9:00 PM65 °FMild.6 mph46%29.85 "HgN/A
8:00 PM67 °FMild.5 mph46%29.83 "HgN/A
7:00 PM69 °FMild.6 mph48%29.80 "HgN/A
6:00 PM69 °FMild.7 mph48%29.80 "HgN/A
5:00 PM69 °FMild.7 mph47%29.81 "HgN/A
4:00 PM68 °FMild.6 mph49%29.83 "HgN/A
3:00 PM66 °FMild.7 mph51%29.84 "HgN/A
2:00 PM65 °FOvercast.7 mph54%29.86 "HgN/A
1:00 PM64 °FMild.9 mph55%29.87 "HgN/A
12:00 PM64 °FMild.6 mph59%29.88 "HgN/A
11:00 AM63 °FMild.8 mph58%29.89 "HgN/A
10:00 AM63 °FMild.6 mph64%29.88 "HgN/A
8:00 AM62 °FCool.7 mph62%29.88 "HgN/A
7:00 AM61 °FCool.7 mph65%29.87 "HgN/A
6:00 AM61 °FCool.6 mph64%29.86 "HgN/A
Weather by CustomWeather, © 2015

See weather overviewHow to use our weather pages